DECAYED

STARLINK-34792, 65085 (Decayed)

Orbit data source: Space-Track

STARLINK-34792, 65085 was a payload satellite owned by SpaceX/Seattle (US) in LEO that was launched on Mon, 04 Aug 2025 UTC via an FALCON 9 launch vehicle from the Air Force Eastern Test Range (AFETR). Payload-class satellites include a variety of spacecraft equipped with specific instruments for various scientific and technological missions. These include communications satellites like Starlink; space stations such as the ISS; scientific satellites like the Hubble; Earth observation satellites from companies like Planet Labs, Umbra, and HawkEye 360; GPS; miniature CubeSats for education and research; and military/defense satellites.

Not visible in the next 10 days
Identifier
65085, 2025-167H
Orbit
Decayed
Country
Flag of USUS
Related business
Manufacturer
SpaceX/Seattle
Mission
Decayed Commercial Communications
Bus & Motor
STARLINK V2MO, Unknown motor
Mass
575 kg wet, ~530 kg dry
Launch date (UTC)
2025-08-04 (11 months ago)
Launch vehicle
FALCON 9
Launch site
Air Force Eastern Test Range (AFETR)
Object type
Payload
Rocket body
Debris
Shape & HBR
Box + 2 Pan, 17.7 m
Radar Cross Section
36.964 m², Large (>1 m²)

Expand to show TLE details & history
Last TLE update: 2 months ago

TLE from 2 months ago
0 STARLINK-34792
1 65085U 25167H   26114.62890870  .13990808  12055-4  34324-2 0  9992
2 65085  53.1513 166.7276 0001898 300.8496  59.2360 16.28529762 40608
Epoch: 2026-04-24T15:05Z
TLE epoch observation values (Epoch: 2026-04-24T15:05:37.711Z)
Latitude
-0.00005°
Longitude
87.66154°
Altitude
196.792 km
Speed
7.79 km/s
True Right ascension
11h 06m 54s
True Declination
0° 00' 00"
Sunlit
Object was in full shadow at epoch
Visualization orbit readout
Latitude
Unknown
Longitude
Unknown
Altitude
Unknown
Speed
Unknown
Apparent Right ascension
Unknown
Apparent Declination
Unknown
Sunlit
N/A
Visualization observer readout
Local Sidereal Time
17:59:13
Azimuth
Unknown
Elevation
Unknown
Doppler factor
Unknown
Orbital elements
Apogee altitude
198.01 km
Perigee altitude
195.514 km
Semi-major axis
6,574.899 km
Eccentricity
0.00019
Inclination
53.1513°
RAAN
166.7276°
Arg. of periapsis
300.8496°
True anomaly
59.25469°
Mean anomaly
59.236°
Eccentric anomaly
59.24535°
Mean motion
4.07108 °/min
Orbital period
88.43 mins
BSTAR
0.0034324
Loading maneuver chart data...
Computing Atmospheric mass density...
Loading historical data...
Loading historical data...
Loading historical data...
Loading historical data...
Loading historical data...
Loading historical data...
Loading historical data...

Documentation

Showing up to 5 results
|